BEARDSLEY LAKE (BRD)

Elevation: 3398' · STANISLAUS R basin · Operator: Oakdale South San Joaquin Irrigation District

Provisional data, subject to change.
Query executed Friday at 9:59:19   clock

Select a sensor type for a plot of data.
Note: Reservoir Flows are daily averages.

Earlier

Date STORAGE    RES CHG    OUTFLOW    PPT INC   
 AF   AF   CFS   INCHES  
11/03/2016 55244 -35 131 0.00
11/04/2016 55157 -87 148 0.00
11/05/2016 55070 -87 148 0.00
11/06/2016 54972 -98 146 0.00
11/07/2016 54863 -109 147 0.00
11/08/2016 54770 -93 142 0.00
11/09/2016 54678 -92 140 0.00
11/10/2016 54574 -104 140 0.00
11/11/2016 54470 -104 141 0.00
11/12/2016 54367 -103 140 0.00
11/13/2016 54263 -104 138 0.00
11/14/2016 54160 -103 138 0.00
11/15/2016 54050 -110 138 0.00
11/16/2016 53958 -92 138 0.07
11/17/2016 53975 17 140 0.05
11/18/2016 55030 1055 239 0.00
11/19/2016 55777 747 391 0.00
11/20/2016 56429 652 389 0.00
11/21/2016 57154 725 387 0.20
11/22/2016 57976 822 394 0.00
11/23/2016 58838 862 392 0.62
11/24/2016 59681 843 392 0.00
11/25/2016 60528 847 397 0.00
11/26/2016 61409 881 399 0.00
11/27/2016 62312 903 400 1.68
11/28/2016 62077 -235 399 0.20
11/29/2016 61415 -662 399 0.05
11/30/2016 60767 -648 399 0.00
12/01/2016 60116 -651 400 0.00
12/02/2016 -- -- -- --

Later | Latest

Warning! This data is preliminary and subject to revision.

Show BRD Map | Plot BRD Data | 1 Month BRD Data | Real-Time BRD Data | BRD Info